Temp
24 25 25 25 25 25 25 26 25 25 24 25 25 25 25 25 26 26 26 27 27 27
25 25 25 25 26 26 25 25 25 25 25 25 25 25 25 25 25 26 25 26 26 27
25 25 25 25 24 24 24 25 23 25 25 25 25 25 25 25 25 26 26 26 26 26
26 25 25 25 25 25 24 25 23 25 25 25 25 25 25 25 25 25 25 26 26 26
26 26 26 26 25 25 24 24 24 24 25 25 25 25 25 25 25 25 26 25 26 26
26 27 27 26 26 25 25 24 25 24 24 24 24 24 24 24 25 25 25 25 26 26
24 26 25 26 26 26 25 25 24 24 24 24 25 24 24 24 24 25 25 25 26 26
24 24 25 24 26 26 25 25 24 24 25 25 25 24 24 23 24 25 25 26 26 25
24 23 23 22 23 24 24 24 24 24 24 23 23 22 22 23 23 23 22 25 25 24
20 20 20 21 21 20 22 23 22 21 21 21 20 21 22 24 24 24 23 24 24 23
18 18 18 18 18 19 20 20 19 18 19 19 19 20 22 22 22 21 21 20 20 20
18 18 18 18 18 18 18 18 18 18 18 18 18 19 20 22 21 20 20 20 20 19
18 18 18 18 18 17 17 17 18 17 17 17 18 19 20 21 21 20 19 20 19 19
17 17 18 17 17 16 16 16 15 15 15 16 16 17 18 19 20 19 18 18 17 18
Height
851 853 851 849 849 851 856 859 862 864 863 862 862 862 861 861 863 869 870 870 867 861
846 847 846 847 846 852 854 856 859 863 863 861 859 859 860 859 859 861 863 864 864 863
841 844 845 847 849 854 854 851 854 862 863 859 857 858 859 861 862 863 863 865 866 867
837 840 843 846 848 853 856 858 860 860 861 858 856 857 859 860 861 863 864 864 865 867
833 836 840 843 847 850 853 857 858 858 857 856 856 858 858 858 860 860 861 862 863 864
832 833 837 840 843 846 847 849 852 853 853 854 854 856 856 855 855 855 856 856 858 860
832 832 837 839 841 843 844 846 850 851 851 852 851 853 853 855 858 858 854 853 855 858
829 831 833 839 840 841 843 844 847 850 850 851 850 849 853 857 859 863 866 860 857 856
829 831 834 836 839 840 841 844 846 848 850 848 848 847 852 859 860 865 843 857 861 854
827 829 831 833 836 830 839 843 844 845 846 847 848 847 846 849 853 857 858 858 856 852
830 832 833 833 835 836 838 842 844 845 847 849 849 849 847 848 847 849 851 853 854 855
831 833 834 835 834 837 842 842 847 849 851 851 852 852 851 851 852 852 856 858 859 861
831 835 837 837 840 841 843 845 848 852 852 854 853 855 855 853 856 858 860 861 863 864
833 836 839 839 841 843 844 848 850 854 856 857 856 858 859 858 857 859 861 865 866 866
Wind_Speed
13 12 10 8 4 8 9 11 12 11 10 10 8 5 3 5 5 5 2 6 10 14
9 10 4 3 6 3 6 5 9 7 9 7 7 6 5 6 6 4 5 6 9 11
15 10 8 4 5 6 4 4 17 10 11 8 6 7 7 7 6 7 6 7 9 7
16 14 13 10 7 6 5 16 16 12 9 8 7 7 6 7 5 7 6 6 6 5
19 17 17 15 11 10 8 13 15 12 10 9 8 9 10 7 8 7 8 7 6 7
13 18 14 16 14 12 11 9 11 10 9 9 11 11 14 14 11 8 8 8 5 6
18 14 14 14 17 16 13 11 11 12 9 9 11 11 14 16 13 12 11 9 7 6
7 14 17 13 19 16 16 13 12 11 10 10 9 11 12 7 8 11 9 4 5 5
15 11 17 22 15 15 12 13 11 8 7 8 6 5 9 14 15 7 11 8 5 5
3 7 10 17 16 8 9 9 6 4 3 3 3 5 6 7 7 3 2 3 1 3
6 8 10 13 15 14 11 14 15 11 7 3 5 4 3 1 1 6 9 10 11 5
7 5 4 4 7 14 17 18 14 10 10 10 10 7 5 8 9 6 7 8 8 8
9 8 6 5 7 9 7 5 3 7 8 9 11 8 7 11 11 12 7 9 12 12
9 6 8 10 15 14 15 13 12 11 9 9 11 10 9 8 11 10 16 13 10 11
Wind_Direction
180 194 213 208 238 214 302 184 188 198 199 190 210 215 240 257 263 290 294 325 322 335
187 211 243 214 238 177 8 124 164 197 198 199 206 207 231 266 268 301 339 310 310 324
191 204 201 185 193 196 236 128 262 228 217 190 199 219 232 253 265 246 249 278 343 266
188 193 197 196 205 200 177 185 202 208 207 206 203 218 235 256 281 213 234 272 299 307
190 193 195 195 199 214 190 193 198 198 199 205 209 225 236 236 243 253 245 251 273 283
197 190 206 196 206 208 194 196 202 206 210 225 227 231 233 228 231 232 234 245 259 279
204 193 225 217 213 211 202 211 213 216 215 227 235 236 237 228 226 228 220 236 219 255
218 211 219 255 232 211 210 210 218 227 227 224 239 250 242 257 254 251 254 270 225 239
248 236 238 260 253 226 216 220 222 235 234 197 232 255 209 211 201 274 240 260 292 28
195 221 227 239 235 211 207 198 171 178 163 186 283 349 278 244 253 322 152 226 11 126
147 135 119 108 100 110 137 112 114 106 109 71 42 8 320 223 218 47 67 71 62 61
150 142 151 157 101 86 107 105 94 88 77 75 65 50 37 129 114 124 79 91 75 49
160 162 165 157 162 156 174 138 136 102 84 71 62 49 60 113 142 108 104 102 81 57
134 151 154 125 131 129 122 131 125 114 97 90 67 57 50 62 83 88 84 83 74 35